BSAT-2a

operational
NORAD ID: 26720 Int'l Des: 2001-011 Owner: BSAT Country: J
HEOCIRCULAR

关于 BSAT-2a

正在加载描述...

实时位置

正在加载3D地球...

即将过境

高度历史

Altitude vs Time

uPlot chart will show altitude changes over time

两行轨道根数

1 26720U 01011B 25278.50791426 -.00000025 00000-0 00000+0 0 9995
2 26720 10.1896 49.7710 0007659 179.8098 165.8025 0.99179564 89443
Epoch: Oct 5, 2025 • Age: 6 hours

当前状态

高度 36103.8 km
速度 3.06 km/s
星下点 9.71°N, 163.23°W
发射日期 Mar 8, 2001
运行时间 24.5 years
类型 other

技术详情

分类 Payload
质量 650.00 kg
干质量 490.00 kg
总质量 1317.00 kg
长度 3.80 m
直径 2.50 m
跨度 16.10 m
形状 Box + 2 Pan
制造商 OSCD
平台类型 OSC Star 1
阶段状态 In Orbit
所有者/国家 BSAT/J

大型星座

Loading constellations...